User: anonymous   Login
Location: Nebula Knoll Observatory
(43.6666°N, 71.0000°W)
Time: 07:59:07
(UTC-05:00)
Language:

Cosmos 1782 - Orbit

View from above orbital plane
View from above orbital plane
View from above satellite
View from above satellite

Ground track
Ground track

The orbit data is extracted from the following two-line orbital elements,

1 16986U 86074A   17016.80628557 -.00000110  00000-0 -95145-5 0  9994
2 16986  82.5071 268.4687 0012642 132.7638 227.4655 15.06411104648069
Epoch (UTC): 16 January 2017 19:21:03
Eccentricity: 0.0012642
inclination: 82.5071°
perigee height: 538 km
apogee height: 556 km
right ascension of ascending node: 268.4687°
argument of perigee: 132.7638°
revolutions per day: 15.06411104
mean anomaly at epoch: 227.4655°
orbit number at epoch: 64806

The dashed part of the orbit path shows where the satellite is in the earth's shadow,  

DLR